| time (UTC) | temp F | wind direction | speed MPH | gust MPH | rain 1hr in | rain 24hr in | rain mn in | humidity % | barometer mb |
| 20260510142228 | 69 | 72 | 0.0 | 1.0 | 0.00 | 0.00 | 0.00 | 71 | 1012.2 |
| 20260510141725 | 68 | 44 | 0.0 | 1.0 | 0.00 | 0.00 | 0.00 | 73 | 1012.5 |
| 20260510141223 | 67 | 21 | 2.0 | 2.0 | 0.00 | 0.00 | 0.00 | 74 | 1012.4 |
| 20260510140719 | 67 | 34 | 2.0 | 2.0 | 0.00 | 0.00 | 0.00 | 75 | 1012.4 |
| 20260510140214 | 66 | 30 | 2.0 | 2.0 | 0.00 | 0.00 | 0.00 | 79 | 1012.4 |
| 20260510135709 | 65 | 59 | 1.0 | 1.0 | 0.00 | 0.00 | 0.00 | 78 | 1012.1 |
| 20260510135205 | 65 | 35 | 1.0 | 1.0 | 0.00 | 0.00 | 0.00 | 82 | 1012.0 |
| 20260510134702 | 64 | 80 | 0.0 | 0.0 | 0.00 | 0.00 | 0.00 | 82 | 1012.3 |
| 20260510134159 | 63 | 39 | 1.0 | 2.0 | 0.00 | 0.00 | 0.00 | 82 | 1012.4 |
| 20260510133655 | 63 | 65 | 3.0 | 3.0 | 0.00 | 0.00 | 0.00 | 84 | 1012.1 |
| 20260510133151 | 62 | 65 | 0.0 | 1.0 | 0.00 | 0.00 | 0.00 | 86 | 1012.2 |
| 20260510132647 | 62 | 60 | 0.0 | 0.0 | 0.00 | 0.00 | 0.00 | 87 | 1012.4 |
| 20260510132144 | 61 | 71 | 0.0 | 0.0 | 0.00 | 0.00 | 0.00 | 87 | 1012.4 |
| 20260510131642 | 61 | 67 | 1.0 | 1.0 | 0.00 | 0.00 | 0.00 | 88 | 1012.2 |
| 20260510131139 | 60 | 78 | 0.0 | 0.0 | 0.00 | 0.00 | 0.00 | 89 | 1012.3 |
| 20260510130636 | 58 | 111 | 1.0 | 1.0 | 0.00 | 0.00 | 0.00 | 93 | 1012.5 |
| 20260510130133 | 57 | 117 | 0.0 | 0.0 | 0.00 | 0.00 | 0.00 | 94 | 1012.3 |
| 20260510125629 | 57 | 97 | 0.0 | 1.0 | 0.00 | 0.00 | 0.00 | 96 | 1012.5 |
| 20260510125126 | 56 | 109 | 0.0 | 1.0 | 0.00 | 0.00 | 0.00 | 97 | 1012.7 |
| 20260510124623 | 55 | 90 | 0.0 | 0.0 | 0.00 | 0.00 | 0.00 | 99 | 1012.3 |
| 20260510124120 | 55 | 68 | 0.0 | 0.0 | 0.00 | 0.00 | 0.00 | 99 | 1012.5 |
| 20260510123615 | 55 | 120 | 0.0 | 1.0 | 0.00 | 0.00 | 0.00 | 99 | 1012.4 |
| 20260510123111 | 54 | 90 | 0.0 | 0.0 | 0.00 | 0.00 | 0.00 | 99 | 1012.4 |
| 20260510122607 | 54 | 111 | 0.0 | 0.0 | 0.00 | 0.00 | 0.00 | 99 | 1012.4 |
| 20260510122103 | 53 | 89 | 0.0 | 0.0 | 0.00 | 0.00 | 0.00 | 99 | 1012.2 |
| 20260510121600 | 53 | 65 | 0.0 | 0.0 | 0.00 | 0.00 | 0.00 | 99 | 1012.2 |
| 20260510121057 | 53 | 66 | 0.0 | 0.0 | 0.00 | 0.00 | 0.00 | 99 | 1012.1 |
| 20260510120555 | 53 | 67 | 0.0 | 0.0 | 0.00 | 0.00 | 0.00 | 99 | 1012.1 |
| 20260510120050 | 53 | 69 | 0.0 | 0.0 | 0.00 | 0.00 | 0.00 | 99 | 1011.8 |
| 20260510115547 | 52 | 62 | 0.0 | 0.0 | 0.00 | 0.00 | 0.00 | 99 | 1012.0 |
| 20260510115044 | 52 | 65 | 0.0 | 0.0 | 0.00 | 0.00 | 0.00 | 99 | 1011.8 |
| 20260510114540 | 51 | 90 | 0.0 | 0.0 | 0.00 | 0.00 | 0.00 | 99 | 1011.9 |
| 20260510114036 | 51 | 90 | 0.0 | 0.0 | 0.00 | 0.00 | 0.00 | 99 | 1011.8 |
| 20260510113531 | 51 | 90 | 0.0 | 0.0 | 0.00 | 0.00 | 0.00 | 99 | 1011.6 |
| 20260510113030 | 51 | 91 | 0.0 | 0.0 | 0.00 | 0.00 | 0.00 | 99 | 1011.5 |
| 20260510112526 | 51 | 91 | 0.0 | 0.0 | 0.00 | 0.00 | 0.00 | 99 | 1011.5 |
| 20260510112022 | 51 | 91 | 0.0 | 0.0 | 0.00 | 0.00 | 0.00 | 99 | 1011.4 |
| 20260510111519 | 51 | 91 | 0.0 | 0.0 | 0.00 | 0.00 | 0.00 | 99 | 1011.5 |
| 20260510111015 | 50 | 67 | 0.0 | 0.0 | 0.00 | 0.00 | 0.00 | 99 | 1011.6 |
| 20260510110511 | 50 | 66 | 0.0 | 0.0 | 0.00 | 0.00 | 0.00 | 99 | 1011.6 |
| 20260510110008 | 50 | 67 | 0.0 | 0.0 | 0.00 | 0.00 | 0.00 | 99 | 1011.6 |
| 20260510105502 | 49 | 95 | 0.0 | 0.0 | 0.00 | 0.00 | 0.00 | 99 | 1011.5 |
| 20260510104958 | 49 | 95 | 0.0 | 0.0 | 0.00 | 0.00 | 0.00 | 99 | 1011.5 |
| 20260510104455 | 49 | 95 | 0.0 | 0.0 | 0.00 | 0.00 | 0.00 | 99 | 1011.3 |
| 20260510103951 | 49 | 95 | 0.0 | 0.0 | 0.00 | 0.00 | 0.00 | 99 | 1011.1 |
| 20260510103449 | 48 | 95 | 0.0 | 0.0 | 0.00 | 0.00 | 0.00 | 99 | 1011.1 |
| 20260510102944 | 48 | 96 | 0.0 | 0.0 | 0.00 | 0.00 | 0.00 | 99 | 1011.0 |
| 20260510102440 | 48 | 96 | 0.0 | 0.0 | 0.00 | 0.00 | 0.00 | 99 | 1011.1 |
| 20260510101937 | 48 | 96 | 0.0 | 0.0 | 0.00 | 0.00 | 0.00 | 99 | 1011.2 |
| 20260510101435 | 47 | 96 | 1.0 | 1.0 | 0.00 | 0.00 | 0.00 | 99 | 1011.0 |
| 20260510100933 | 47 | 97 | 0.0 | 0.0 | 0.00 | 0.00 | 0.00 | 99 | 1010.7 |
| 20260510100429 | 47 | 97 | 0.0 | 0.0 | 0.00 | 0.00 | 0.00 | 99 | 1010.7 |
| 20260510095925 | 47 | 97 | 0.0 | 0.0 | 0.00 | 0.00 | 0.00 | 99 | 1010.8 |
| 20260510095421 | 47 | 96 | 0.0 | 0.0 | 0.00 | 0.00 | 0.00 | 99 | 1010.8 |
| 20260510094920 | 47 | 96 | 0.0 | 0.0 | 0.00 | 0.00 | 0.00 | 99 | 1010.6 |
| 20260510094415 | 47 | 96 | 0.0 | 0.0 | 0.00 | 0.00 | 0.00 | 99 | 1010.5 |
| 20260510093911 | 47 | 97 | 0.0 | 0.0 | 0.00 | 0.00 | 0.00 | 99 | 1010.7 |
| 20260510093407 | 47 | 97 | 0.0 | 0.0 | 0.00 | 0.00 | 0.00 | 99 | 1010.7 |
| 20260510092904 | 47 | 97 | 0.0 | 0.0 | 0.00 | 0.00 | 0.00 | 99 | 1010.4 |
| 20260510092401 | 47 | 96 | 0.0 | 0.0 | 0.00 | 0.00 | 0.00 | 99 | 1010.5 |
| 20260510091855 | 47 | 96 | 0.0 | 0.0 | 0.00 | 0.00 | 0.00 | 99 | 1010.5 |
| 20260510091352 | 47 | 98 | 0.0 | 0.0 | 0.00 | 0.00 | 0.00 | 99 | 1010.4 |
| 20260510090849 | 47 | 76 | 0.0 | 0.0 | 0.00 | 0.00 | 0.00 | 99 | 1010.6 |
| 20260510090345 | 47 | 114 | 0.0 | 0.0 | 0.00 | 0.00 | 0.00 | 99 | 1010.4 |
| 20260510085841 | 47 | 57 | 0.0 | 0.0 | 0.00 | 0.00 | 0.00 | 99 | 1011.2 |
| 20260510085336 | 48 | 88 | 0.0 | 0.0 | 0.00 | 0.00 | 0.00 | 99 | 1010.7 |
| 20260510084832 | 47 | 29 | 0.0 | 0.0 | 0.00 | 0.00 | 0.00 | 99 | 1010.4 |
| 20260510084330 | 47 | 126 | 1.0 | 2.0 | 0.00 | 0.00 | 0.00 | 99 | 1010.6 |
| 20260510083826 | 46 | 84 | 0.0 | 0.0 | 0.00 | 0.00 | 0.00 | 99 | 1010.4 |
| 20260510083323 | 46 | 53 | 0.0 | 0.0 | 0.00 | 0.00 | 0.00 | 99 | 1011.4 |
| 20260510082818 | 45 | 118 | 0.0 | 0.0 | 0.00 | 0.00 | 0.00 | 99 | 1010.5 |
| 20260510082316 | 44 | 338 | 1.0 | 1.0 | 0.00 | 0.00 | 0.00 | 99 | 1010.7 |
| 20260510081814 | 44 | 354 | 3.0 | 3.0 | 0.00 | 0.00 | 0.00 | 99 | 1010.9 |
| 20260510081310 | 44 | 94 | 0.0 | 0.0 | 0.00 | 0.00 | 0.00 | 99 | 1010.2 |
| 20260510080807 | 44 | 94 | 0.0 | 0.0 | 0.00 | 0.00 | 0.00 | 99 | 1010.0 |
| 20260510080302 | 44 | 94 | 0.0 | 0.0 | 0.00 | 0.00 | 0.00 | 99 | 1009.9 |
| 20260510075759 | 44 | 93 | 0.0 | 0.0 | 0.00 | 0.00 | 0.00 | 99 | 1009.8 |
| 20260510075256 | 44 | 93 | 0.0 | 0.0 | 0.00 | 0.00 | 0.00 | 99 | 1009.9 |
| 20260510074753 | 44 | 94 | 0.0 | 0.0 | 0.00 | 0.00 | 0.00 | 99 | 1009.9 |
| 20260510074250 | 44 | 91 | 0.0 | 0.0 | 0.00 | 0.00 | 0.00 | 99 | 1010.3 |
| 20260510073746 | 44 | 91 | 0.0 | 0.0 | 0.00 | 0.00 | 0.00 | 99 | 1010.0 |
| 20260510073242 | 44 | 92 | 0.0 | 0.0 | 0.00 | 0.00 | 0.00 | 99 | 1009.9 |
| 20260510072737 | 44 | 91 | 0.0 | 0.0 | 0.00 | 0.00 | 0.00 | 99 | 1009.9 |
| 20260510072234 | 44 | 91 | 0.0 | 0.0 | 0.00 | 0.00 | 0.00 | 99 | 1009.9 |
| 20260510071731 | 44 | 92 | 0.0 | 0.0 | 0.00 | 0.00 | 0.00 | 99 | 1009.9 |
| 20260510071228 | 44 | 90 | 0.0 | 0.0 | 0.00 | 0.00 | 0.00 | 99 | 1009.7 |
| 20260510070726 | 44 | 90 | 0.0 | 0.0 | 0.00 | 0.00 | 0.00 | 99 | 1009.6 |
| 20260510070223 | 44 | 90 | 0.0 | 0.0 | 0.00 | 0.00 | 0.00 | 99 | 1009.6 |
| 20260510065718 | 44 | 90 | 0.0 | 0.0 | 0.00 | 0.00 | 0.00 | 99 | 1009.5 |
| 20260510065214 | 44 | 90 | 0.0 | 0.0 | 0.00 | 0.00 | 0.00 | 99 | 1009.5 |
| 20260510064711 | 44 | 90 | 0.0 | 0.0 | 0.00 | 0.00 | 0.00 | 99 | 1009.5 |
| 20260510064209 | 44 | 90 | 0.0 | 0.0 | 0.00 | 0.00 | 0.00 | 99 | 1009.3 |
| 20260510063705 | 44 | 90 | 0.0 | 0.0 | 0.00 | 0.00 | 0.00 | 99 | 1009.2 |
| 20260510063201 | 45 | 90 | 0.0 | 0.0 | 0.00 | 0.00 | 0.00 | 99 | 1009.4 |
| 20260510062658 | 45 | 90 | 0.0 | 0.0 | 0.00 | 0.00 | 0.00 | 99 | 1009.5 |
| 20260510062154 | 45 | 90 | 0.0 | 0.0 | 0.00 | 0.00 | 0.00 | 99 | 1009.5 |
| 20260510061649 | 45 | 91 | 0.0 | 0.0 | 0.00 | 0.00 | 0.00 | 99 | 1009.5 |
| 20260510061147 | 45 | 90 | 0.0 | 0.0 | 0.00 | 0.00 | 0.00 | 99 | 1009.8 |
| 20260510060643 | 45 | 90 | 0.0 | 0.0 | 0.00 | 0.00 | 0.00 | 99 | 1009.5 |
| 20260510060140 | 45 | 90 | 0.0 | 0.0 | 0.00 | 0.00 | 0.00 | 99 | 1009.5 |
| 20260510055636 | 45 | 90 | 0.0 | 0.0 | 0.00 | 0.00 | 0.00 | 99 | 1009.6 |
| 20260510055134 | 45 | 90 | 0.0 | 0.0 | 0.00 | 0.00 | 0.00 | 99 | 1009.5 |
| 20260510054629 | 45 | 91 | 0.0 | 0.0 | 0.00 | 0.00 | 0.00 | 99 | 1009.4 |
| 20260510054125 | 45 | 90 | 0.0 | 0.0 | 0.00 | 0.00 | 0.00 | 99 | 1009.6 |
| 20260510053624 | 45 | 90 | 0.0 | 0.0 | 0.00 | 0.00 | 0.00 | 99 | 1009.8 |
| 20260510053121 | 46 | 90 | 0.0 | 0.0 | 0.00 | 0.00 | 0.00 | 99 | 1009.9 |
| 20260510052617 | 46 | 90 | 0.0 | 0.0 | 0.00 | 0.00 | 0.00 | 99 | 1009.8 |
| 20260510052114 | 46 | 90 | 0.0 | 0.0 | 0.00 | 0.00 | 0.00 | 99 | 1010.0 |
| 20260510051609 | 46 | 90 | 0.0 | 0.0 | 0.00 | 0.00 | 0.00 | 99 | 1009.9 |
| 20260510051107 | 46 | 90 | 0.0 | 0.0 | 0.00 | 0.00 | 0.00 | 99 | 1010.0 |
| 20260510050604 | 46 | 90 | 0.0 | 0.0 | 0.00 | 0.00 | 0.00 | 99 | 1010.0 |
| 20260510050100 | 46 | 90 | 0.0 | 0.0 | 0.00 | 0.00 | 0.00 | 99 | 1009.9 |
| 20260510045558 | 46 | 90 | 0.0 | 0.0 | 0.00 | 0.00 | 0.00 | 99 | 1010.1 |
| 20260510045053 | 46 | 90 | 0.0 | 0.0 | 0.00 | 0.00 | 0.00 | 99 | 1010.0 |
| 20260510044550 | 46 | 90 | 0.0 | 0.0 | 0.00 | 0.00 | 0.00 | 99 | 1009.9 |
| 20260510044048 | 46 | 90 | 0.0 | 0.0 | 0.00 | 0.00 | 0.00 | 99 | 1009.9 |
| 20260510043543 | 46 | 90 | 0.0 | 0.0 | 0.00 | 0.00 | 0.00 | 99 | 1010.1 |
| 20260510043039 | 46 | 91 | 0.0 | 0.0 | 0.00 | 0.00 | 0.00 | 99 | 1009.9 |
| 20260510042538 | 47 | 91 | 0.0 | 0.0 | 0.00 | 0.00 | 0.00 | 99 | 1010.1 |
| 20260510042034 | 47 | 91 | 0.0 | 0.0 | 0.00 | 0.00 | 0.00 | 99 | 1010.1 |
| 20260510041532 | 47 | 91 | 0.0 | 0.0 | 0.00 | 0.00 | 0.00 | 99 | 1010.3 |
| 20260510041029 | 47 | 91 | 0.0 | 0.0 | 0.00 | 0.00 | 0.00 | 99 | 1010.1 |
| 20260510040525 | 47 | 91 | 0.0 | 0.0 | 0.00 | 0.00 | 0.00 | 99 | 1010.3 |
| 20260510040021 | 47 | 91 | 0.0 | 0.0 | 0.00 | 0.01 | 0.01 | 99 | 1010.1 |
| 20260510035518 | 47 | 91 | 0.0 | 0.0 | 0.00 | 0.01 | 0.01 | 99 | 1010.2 |
| 20260510035017 | 47 | 91 | 0.0 | 0.0 | 0.00 | 0.01 | 0.01 | 99 | 1010.2 |
| 20260510034516 | 47 | 91 | 0.0 | 0.0 | 0.00 | 0.01 | 0.01 | 99 | 1010.0 |
| 20260510034012 | 48 | 91 | 0.0 | 0.0 | 0.00 | 0.01 | 0.01 | 99 | 1010.0 |
| 20260510033508 | 48 | 91 | 0.0 | 0.0 | 0.00 | 0.01 | 0.01 | 99 | 1010.0 |
| 20260510033006 | 48 | 91 | 0.0 | 0.0 | 0.00 | 0.01 | 0.01 | 99 | 1010.1 |
| 20260510032502 | 48 | 91 | 0.0 | 0.0 | 0.00 | 0.01 | 0.01 | 99 | 1010.2 |
| 20260510031957 | 48 | 90 | 0.0 | 0.0 | 0.00 | 0.01 | 0.01 | 99 | 1009.9 |
| 20260510031453 | 48 | 90 | 0.0 | 0.0 | 0.00 | 0.01 | 0.01 | 99 | 1009.9 |
| 20260510030949 | 48 | 90 | 0.0 | 0.0 | 0.00 | 0.01 | 0.01 | 99 | 1010.0 |
| 20260510030444 | 48 | 91 | 0.0 | 0.0 | 0.00 | 0.01 | 0.01 | 99 | 1010.0 |
| 20260510025942 | 48 | 86 | 0.0 | 0.0 | 0.00 | 0.01 | 0.01 | 99 | 1009.6 |
| 20260510025439 | 49 | 86 | 0.0 | 0.0 | 0.00 | 0.01 | 0.01 | 99 | 1009.8 |
| 20260510024937 | 49 | 86 | 0.0 | 0.0 | 0.00 | 0.01 | 0.01 | 99 | 1009.7 |
| 20260510024433 | 49 | 87 | 0.0 | 0.0 | 0.00 | 0.01 | 0.01 | 99 | 1009.6 |
| 20260510023929 | 49 | 87 | 0.0 | 0.0 | 0.00 | 0.01 | 0.01 | 99 | 1009.8 |
| 20260510023425 | 49 | 99 | 0.0 | 0.0 | 0.00 | 0.01 | 0.01 | 99 | 1009.6 |
| 20260510022922 | 49 | 99 | 0.0 | 0.0 | 0.00 | 0.01 | 0.01 | 98 | 1009.7 |
| 20260510022421 | 49 | 99 | 0.0 | 0.0 | 0.00 | 0.01 | 0.01 | 98 | 1009.7 |
| 20260510021920 | 49 | 99 | 0.0 | 0.0 | 0.00 | 0.01 | 0.01 | 98 | 1009.9 |
| 20260510021419 | 50 | 99 | 0.0 | 0.0 | 0.00 | 0.01 | 0.01 | 98 | 1009.8 |
| 20260510020915 | 50 | 99 | 0.0 | 0.0 | 0.00 | 0.01 | 0.01 | 98 | 1009.9 |
| 20260510020410 | 50 | 99 | 0.0 | 0.0 | 0.00 | 0.01 | 0.01 | 98 | 1009.7 |
| 20260510015906 | 50 | 99 | 0.0 | 0.0 | 0.00 | 0.01 | 0.01 | 98 | 1009.8 |
| 20260510015402 | 50 | 99 | 0.0 | 0.0 | 0.00 | 0.01 | 0.01 | 98 | 1009.6 |
| 20260510014857 | 50 | 99 | 0.0 | 0.0 | 0.00 | 0.01 | 0.01 | 98 | 1009.7 |
| 20260510014355 | 51 | 99 | 0.0 | 0.0 | 0.00 | 0.01 | 0.01 | 98 | 1009.6 |
| 20260510013851 | 51 | 99 | 0.0 | 0.0 | 0.00 | 0.01 | 0.01 | 98 | 1009.5 |
| 20260510013346 | 51 | 99 | 0.0 | 0.0 | 0.00 | 0.01 | 0.01 | 97 | 1009.3 |
| 20260510012841 | 51 | 99 | 0.0 | 0.0 | 0.00 | 0.01 | 0.01 | 97 | 1009.4 |
| 20260510012342 | 51 | 99 | 0.0 | 0.0 | 0.00 | 0.01 | 0.01 | 97 | 1009.5 |
| 20260510011837 | 51 | 99 | 0.0 | 0.0 | 0.00 | 0.01 | 0.01 | 97 | 1009.5 |
| 20260510011332 | 52 | 99 | 0.0 | 0.0 | 0.00 | 0.01 | 0.01 | 97 | 1009.4 |
| 20260510010829 | 52 | 99 | 0.0 | 0.0 | 0.00 | 0.01 | 0.01 | 96 | 1009.2 |
| 20260510010326 | 53 | 99 | 0.0 | 0.0 | 0.00 | 0.01 | 0.01 | 96 | 1009.4 |
| 20260510005822 | 52 | 99 | 0.0 | 0.0 | 0.00 | 0.01 | 0.01 | 96 | 1009.1 |
| 20260510005319 | 53 | 99 | 0.0 | 0.0 | 0.00 | 0.01 | 0.01 | 96 | 1009.1 |
| 20260510004817 | 53 | 99 | 0.0 | 0.0 | 0.00 | 0.01 | 0.01 | 96 | 1009.1 |
| 20260510004314 | 53 | 99 | 0.0 | 0.0 | 0.00 | 0.01 | 0.01 | 95 | 1009.1 |
| 20260510003812 | 54 | 99 | 0.0 | 0.0 | 0.00 | 0.01 | 0.01 | 95 | 1009.0 |
| 20260510003308 | 54 | 99 | 0.0 | 0.0 | 0.00 | 0.01 | 0.01 | 95 | 1009.2 |
| 20260510002807 | 55 | 99 | 0.0 | 0.0 | 0.00 | 0.01 | 0.01 | 94 | 1009.1 |
| 20260510002307 | 55 | 99 | 0.0 | 0.0 | 0.00 | 0.01 | 0.01 | 94 | 1009.1 |
| 20260510001801 | 56 | 99 | 0.0 | 0.0 | 0.00 | 0.01 | 0.01 | 93 | 1009.1 |
| 20260510001259 | 56 | 99 | 0.0 | 0.0 | 0.00 | 0.01 | 0.01 | 93 | 1009.3 |
| 20260510000754 | 56 | 99 | 0.0 | 0.0 | 0.00 | 0.01 | 0.01 | 93 | 1009.1 |
| 20260510000253 | 57 | 99 | 0.0 | 0.0 | 0.00 | 0.01 | 0.01 | 92 | 1008.9 |
| 20260509235750 | 57 | 99 | 0.0 | 0.0 | 0.00 | 0.01 | 0.01 | 90 | 1009.0 |
| 20260509235246 | 57 | 100 | 0.0 | 0.0 | 0.00 | 0.01 | 0.01 | 90 | 1009.2 |
| 20260509234741 | 58 | 100 | 0.0 | 0.0 | 0.00 | 0.01 | 0.01 | 89 | 1009.3 |
| 20260509234239 | 58 | 100 | 0.0 | 1.0 | 0.00 | 0.01 | 0.01 | 88 | 1009.1 |
| 20260509233737 | 58 | 99 | 0.0 | 0.0 | 0.00 | 0.01 | 0.01 | 87 | 1008.9 |
| 20260509233234 | 58 | 99 | 0.0 | 1.0 | 0.00 | 0.01 | 0.01 | 87 | 1009.0 |
| 20260509232730 | 58 | 86 | 0.0 | 0.0 | 0.00 | 0.01 | 0.01 | 87 | 1008.8 |
| 20260509232227 | 58 | 86 | 0.0 | 0.0 | 0.00 | 0.01 | 0.01 | 87 | 1009.0 |
| 20260509231724 | 58 | 86 | 0.0 | 0.0 | 0.00 | 0.01 | 0.01 | 87 | 1009.2 |
| 20260509231221 | 59 | 86 | 0.0 | 0.0 | 0.00 | 0.01 | 0.01 | 87 | 1009.0 |
| 20260509230719 | 59 | 85 | 0.0 | 0.0 | 0.00 | 0.01 | 0.01 | 87 | 1008.9 |
| 20260509230215 | 58 | 95 | 0.0 | 1.0 | 0.00 | 0.01 | 0.01 | 87 | 1009.0 |
| 20260509225710 | 59 | 68 | 0.0 | 1.0 | 0.00 | 0.01 | 0.01 | 87 | 1008.8 |
| 20260509225206 | 59 | 108 | 1.0 | 1.0 | 0.00 | 0.01 | 0.01 | 87 | 1008.7 |
| 20260509224702 | 59 | 98 | 0.0 | 0.0 | 0.00 | 0.01 | 0.01 | 88 | 1008.8 |
| 20260509224159 | 59 | 79 | 0.0 | 1.0 | 0.00 | 0.01 | 0.01 | 88 | 1009.2 |
| 20260509223656 | 59 | 112 | 0.0 | 0.0 | 0.00 | 0.01 | 0.01 | 88 | 1009.0 |
| 20260509223153 | 59 | 112 | 0.0 | 1.0 | 0.00 | 0.01 | 0.01 | 88 | 1009.1 |
| 20260509222651 | 59 | 97 | 0.0 | 0.0 | 0.00 | 0.01 | 0.01 | 89 | 1009.0 |
| 20260509222146 | 59 | 77 | 0.0 | 0.0 | 0.00 | 0.01 | 0.01 | 88 | 1009.0 |
| 20260509221642 | 59 | 95 | 1.0 | 1.0 | 0.00 | 0.01 | 0.01 | 88 | 1009.0 |
| 20260509221137 | 58 | 99 | 0.0 | 0.0 | 0.00 | 0.01 | 0.01 | 88 | 1009.1 |
| 20260509220634 | 58 | 55 | 1.0 | 2.0 | 0.00 | 0.01 | 0.01 | 89 | 1009.1 |
| 20260509220130 | 58 | 109 | 0.0 | 1.0 | 0.00 | 0.01 | 0.01 | 88 | 1009.0 |
| 20260509215626 | 59 | 118 | 1.0 | 2.0 | 0.00 | 0.01 | 0.01 | 89 | 1009.0 |
| 20260509215123 | 58 | 103 | 0.0 | 0.0 | 0.00 | 0.01 | 0.01 | 89 | 1009.2 |
| 20260509214620 | 58 | 103 | 0.0 | 1.0 | 0.00 | 0.01 | 0.01 | 90 | 1009.0 |
| 20260509214117 | 58 | 103 | 0.0 | 0.0 | 0.00 | 0.01 | 0.01 | 90 | 1009.1 |
| 20260509213613 | 58 | 103 | 0.0 | 1.0 | 0.00 | 0.01 | 0.01 | 90 | 1009.0 |
| 20260509213109 | 58 | 77 | 0.0 | 0.0 | 0.00 | 0.01 | 0.01 | 91 | 1009.0 |
| 20260509212607 | 58 | 68 | 0.0 | 1.0 | 0.00 | 0.01 | 0.01 | 91 | 1009.2 |
| 20260509212104 | 58 | 66 | 0.0 | 1.0 | 0.00 | 0.01 | 0.01 | 91 | 1009.0 |
| 20260509211559 | 57 | 91 | 0.0 | 0.0 | 0.00 | 0.01 | 0.01 | 91 | 1009.1 |
| 20260509211056 | 57 | 77 | 0.0 | 0.0 | 0.00 | 0.01 | 0.01 | 92 | 1008.8 |
| 20260509210553 | 57 | 63 | 0.0 | 0.0 | 0.00 | 0.01 | 0.01 | 93 | 1008.9 |
| 20260509210049 | 57 | 65 | 0.0 | 0.0 | 0.00 | 0.01 | 0.01 | 93 | 1008.9 |
| 20260509205544 | 58 | 66 | 0.0 | 0.0 | 0.00 | 0.01 | 0.01 | 93 | 1008.8 |
| 20260509205039 | 58 | 65 | 0.0 | 0.0 | 0.00 | 0.01 | 0.01 | 91 | 1009.1 |
| 20260509204536 | 58 | 59 | 0.0 | 0.0 | 0.00 | 0.01 | 0.01 | 89 | 1008.8 |
| 20260509204032 | 58 | 76 | 0.0 | 0.0 | 0.07 | 0.01 | 0.01 | 88 | 1008.9 |
| 20260509203528 | 59 | 74 | 0.0 | 0.0 | 0.07 | 0.01 | 0.01 | 85 | 1008.9 |
| 20260509203027 | 60 | 70 | 0.0 | 0.0 | 0.07 | 0.01 | 0.01 | 84 | 1009.2 |
| 20260509202521 | 60 | 66 | 0.0 | 0.0 | 0.00 | 0.00 | 0.00 | 82 | 1009.3 |
| 20260509202017 | 60 | 53 | 1.0 | 1.0 | 0.00 | 0.00 | 0.00 | 80 | 1009.0 |
| 20260509201512 | 60 | 69 | 1.0 | 1.0 | 0.00 | 0.00 | 0.00 | 79 | 1009.1 |
| 20260509201009 | 61 | 74 | 0.0 | 0.0 | 0.00 | 0.00 | 0.00 | 78 | 1008.8 |
| 20260509200504 | 60 | 36 | 0.0 | 1.0 | 0.00 | 0.00 | 0.00 | 80 | 1008.8 |
| 20260509200001 | 61 | 330 | 2.0 | 3.0 | 0.00 | 0.00 | 0.00 | 78 | 1009.1 |
| 20260509195455 | 61 | 88 | 3.0 | 3.0 | 0.00 | 0.00 | 0.00 | 77 | 1008.9 |
| 20260509194950 | 60 | 42 | 1.0 | 2.0 | 0.00 | 0.00 | 0.00 | 79 | 1009.1 |
| 20260509194446 | 59 | 57 | 1.0 | 2.0 | 0.00 | 0.00 | 0.00 | 82 | 1009.0 |
| 20260509193943 | 59 | 359 | 1.0 | 2.0 | 0.00 | 0.00 | 0.00 | 81 | 1009.0 |
| 20260509193442 | 59 | 81 | 0.0 | 0.0 | 0.00 | 0.00 | 0.00 | 82 | 1009.3 |
| 20260509192939 | 59 | 86 | 0.0 | 1.0 | 0.00 | 0.00 | 0.00 | 82 | 1009.3 |
| 20260509192436 | 59 | 41 | 0.0 | 1.0 | 0.00 | 0.00 | 0.00 | 82 | 1009.3 |
| 20260509191931 | 58 | 267 | 2.0 | 2.0 | 0.00 | 0.00 | 0.00 | 83 | 1009.7 |
| 20260509191426 | 59 | 325 | 3.0 | 3.0 | 0.00 | 0.00 | 0.00 | 83 | 1009.6 |
| 20260509190922 | 58 | 341 | 2.0 | 3.0 | 0.00 | 0.00 | 0.00 | 83 | 1009.6 |
| 20260509190420 | 59 | 329 | 2.0 | 3.0 | 0.00 | 0.00 | 0.00 | 84 | 1009.8 |
| 20260509185917 | 58 | 62 | 0.0 | 1.0 | 0.00 | 0.00 | 0.00 | 84 | 1009.8 |
| 20260509185415 | 58 | 96 | 1.0 | 1.0 | 0.00 | 0.00 | 0.00 | 84 | 1010.2 |
| 20260509184911 | 58 | 28 | 2.0 | 2.0 | 0.00 | 0.00 | 0.00 | 83 | 1010.1 |
| 20260509184408 | 58 | 50 | 1.0 | 1.0 | 0.00 | 0.00 | 0.00 | 83 | 1010.2 |
| 20260509183905 | 58 | 32 | 2.0 | 2.0 | 0.00 | 0.00 | 0.00 | 81 | 1010.2 |
| 20260509183359 | 59 | 8 | 2.0 | 2.0 | 0.00 | 0.00 | 0.00 | 81 | 1010.0 |
| 20260509182856 | 59 | 45 | 2.0 | 2.0 | 0.00 | 0.00 | 0.00 | 82 | 1010.2 |
| 20260509182353 | 59 | 57 | 1.0 | 1.0 | 0.00 | 0.00 | 0.00 | 81 | 1010.4 |
| 20260509181850 | 59 | 38 | 2.0 | 3.0 | 0.00 | 0.00 | 0.00 | 81 | 1010.3 |
| 20260509181347 | 59 | 36 | 1.0 | 1.0 | 0.00 | 0.00 | 0.00 | 83 | 1010.2 |
| 20260509180845 | 59 | 41 | 1.0 | 1.0 | 0.00 | 0.00 | 0.00 | 83 | 1010.3 |
| 20260509180340 | 59 | 22 | 1.0 | 1.0 | 0.00 | 0.00 | 0.00 | 84 | 1010.4 |
| 20260509175838 | 59 | 6 | 1.0 | 1.0 | 0.00 | 0.00 | 0.00 | 84 | 1010.4 |
| 20260509175334 | 59 | 48 | 1.0 | 1.0 | 0.00 | 0.00 | 0.00 | 84 | 1010.4 |
| 20260509174830 | 59 | 358 | 1.0 | 1.0 | 0.00 | 0.00 | 0.00 | 83 | 1010.5 |
| 20260509174326 | 59 | 356 | 3.0 | 3.0 | 0.00 | 0.00 | 0.00 | 83 | 1010.5 |
| 20260509173822 | 59 | 9 | 3.0 | 3.0 | 0.00 | 0.00 | 0.00 | 83 | 1010.2 |
| 20260509173317 | 60 | 3 | 4.0 | 5.0 | 0.00 | 0.00 | 0.00 | 84 | 1010.3 |
| 20260509172814 | 60 | 47 | 1.0 | 2.0 | 0.00 | 0.00 | 0.00 | 83 | 1010.3 |
| 20260509172311 | 60 | 17 | 2.0 | 2.0 | 0.00 | 0.00 | 0.00 | 82 | 1010.3 |
| 20260509171806 | 60 | 46 | 1.0 | 1.0 | 0.00 | 0.00 | 0.00 | 82 | 1010.4 |
| 20260509171302 | 61 | 65 | 0.0 | 1.0 | 0.00 | 0.00 | 0.00 | 81 | 1010.4 |
| 20260509170759 | 61 | 62 | 1.0 | 1.0 | 0.00 | 0.00 | 0.00 | 79 | 1010.3 |
| 20260509170255 | 61 | 58 | 1.0 | 1.0 | 0.00 | 0.00 | 0.00 | 78 | 1010.4 |
| 20260509165754 | 62 | 69 | 0.0 | 1.0 | 0.00 | 0.00 | 0.00 | 76 | 1010.4 |
| 20260509165249 | 61 | 71 | 0.0 | 0.0 | 0.00 | 0.00 | 0.00 | 76 | 1010.3 |
| 20260509164745 | 62 | 68 | 0.0 | 1.0 | 0.00 | 0.00 | 0.00 | 80 | 1010.2 |
| 20260509164241 | 61 | 72 | 1.0 | 1.0 | 0.00 | 0.00 | 0.00 | 80 | 1010.3 |
| 20260509163738 | 61 | 71 | 0.0 | 0.0 | 0.00 | 0.00 | 0.00 | 80 | 1010.1 |
| 20260509163235 | 61 | 71 | 0.0 | 0.0 | 0.00 | 0.00 | 0.00 | 81 | 1010.2 |
| 20260509162733 | 60 | 72 | 0.0 | 0.0 | 0.00 | 0.00 | 0.00 | 81 | 1010.2 |
| 20260509162227 | 60 | 70 | 0.0 | 0.0 | 0.00 | 0.00 | 0.00 | 81 | 1010.2 |
| 20260509161723 | 60 | 71 | 0.0 | 0.0 | 0.00 | 0.00 | 0.00 | 81 | 1010.4 |
| 20260509161220 | 60 | 71 | 0.0 | 0.0 | 0.00 | 0.00 | 0.00 | 84 | 1010.3 |
| 20260509160715 | 60 | 71 | 0.0 | 1.0 | 0.00 | 0.00 | 0.00 | 84 | 1010.5 |
| 20260509160212 | 61 | 71 | 0.0 | 0.0 | 0.00 | 0.00 | 0.00 | 85 | 1010.7 |
| 20260509155707 | 62 | 70 | 0.0 | 0.0 | 0.00 | 0.00 | 0.00 | 84 | 1010.9 |
| 20260509155203 | 61 | 81 | 0.0 | 0.0 | 0.00 | 0.00 | 0.00 | 81 | 1011.0 |
| 20260509154700 | 61 | 82 | 0.0 | 0.0 | 0.00 | 0.00 | 0.00 | 81 | 1011.0 |
| 20260509154157 | 61 | 94 | 0.0 | 0.0 | 0.00 | 0.00 | 0.00 | 83 | 1011.1 |
| 20260509153654 | 62 | 71 | 0.0 | 1.0 | 0.00 | 0.00 | 0.00 | 81 | 1011.1 |
| 20260509153150 | 62 | 70 | 0.0 | 0.0 | 0.00 | 0.00 | 0.00 | 80 | 1011.0 |
| 20260509152646 | 62 | 71 | 0.0 | 0.0 | 0.00 | 0.00 | 0.00 | 77 | 1011.3 |
| 20260509152143 | 62 | 71 | 0.0 | 0.0 | 0.00 | 0.00 | 0.00 | 76 | 1011.3 |
| 20260509151640 | 62 | 70 | 0.0 | 1.0 | 0.00 | 0.00 | 0.00 | 72 | 1011.4 |
| 20260509151137 | 62 | 69 | 1.0 | 1.0 | 0.00 | 0.00 | 0.00 | 73 | 1011.2 |
| 20260509150635 | 62 | 77 | 0.0 | 1.0 | 0.00 | 0.00 | 0.00 | 73 | 1011.1 |
| 20260509150133 | 62 | 81 | 0.0 | 0.0 | 0.00 | 0.00 | 0.00 | 74 | 1011.3 |
| 20260509145629 | 62 | 70 | 0.0 | 0.0 | 0.00 | 0.00 | 0.00 | 73 | 1011.4 |
| 20260509145124 | 62 | 70 | 0.0 | 0.0 | 0.00 | 0.00 | 0.00 | 72 | 1011.3 |
| 20260509144621 | 62 | 78 | 0.0 | 1.0 | 0.00 | 0.00 | 0.00 | 73 | 1011.2 |
| 20260509144118 | 62 | 84 | 0.0 | 0.0 | 0.00 | 0.00 | 0.00 | 74 | 1011.2 |
| 20260509143615 | 62 | 93 | 1.0 | 1.0 | 0.00 | 0.00 | 0.00 | 75 | 1011.3 |
| 20260509143113 | 62 | 109 | 0.0 | 1.0 | 0.00 | 0.00 | 0.00 | 75 | 1011.3 |
| 20260509142608 | 62 | 27 | 1.0 | 1.0 | 0.00 | 0.00 | 0.00 | 74 | 1011.1 |